Time,TemperatureF,DewpointF,PressureIn,WindDirection,WindDirectionDegrees,WindSpeedMPH,WindSpeedGustMPH,Humidity,HourlyPrecipIn,Conditions,Clouds,dailyrainin,SoftwareType,DateUTC
2013-07-22 00:04:00,66.2,59.5,29.91,ESE,115,1.0,2.0,79,0.00,,,0.00,WeatherCatV1.20B785,2013-07-21 23:04:00,
2013-07-22 00:09:00,66.1,59.4,29.91,South,180,2.0,6.0,79,0.00,,,0.00,WeatherCatV1.20B785,2013-07-21 23:09:00,
2013-07-22 00:14:00,66.0,59.3,29.91,SE,125,3.0,5.0,79,0.00,,,0.00,WeatherCatV1.20B785,2013-07-21 23:14:00,
2013-07-22 00:19:00,65.9,59.5,29.91,SSE,158,0.0,2.0,80,0.00,,,0.00,WeatherCatV1.20B785,2013-07-21 23:19:00,
2013-07-22 00:24:00,65.9,59.5,29.91,SSE,159,1.0,2.0,80,0.00,,,0.00,WeatherCatV1.20B785,2013-07-21 23:24:00,
2013-07-22 00:29:00,65.9,59.2,29.91,SE,143,1.0,10.0,79,0.00,,,0.00,WeatherCatV1.20B785,2013-07-21 23:29:00,
2013-07-22 00:34:00,65.8,59.1,29.91,SE,136,3.0,3.0,79,0.00,,,0.00,WeatherCatV1.20B785,2013-07-21 23:34:00,
2013-07-22 00:39:00,65.7,59.3,29.91,ESE,107,0.0,3.0,80,0.00,,,0.00,WeatherCatV1.20B785,2013-07-21 23:39:00,
2013-07-22 00:44:00,65.6,59.3,29.90,ENE,78,7.0,9.0,80,0.00,,,0.00,WeatherCatV1.20B785,2013-07-21 23:44:00,
2013-07-22 00:49:00,65.4,59.1,29.90,SE,136,5.0,6.0,80,0.00,,,0.00,WeatherCatV1.20B785,2013-07-21 23:49:00,
2013-07-22 00:54:00,65.3,59.0,29.90,SE,124,3.0,6.0,80,0.00,,,0.00,WeatherCatV1.20B785,2013-07-21 23:54:00,
2013-07-22 00:59:00,65.2,59.2,29.90,SE,134,3.0,6.0,81,0.00,,,0.00,WeatherCatV1.20B785,2013-07-21 23:59:00,
2013-07-22 01:04:00,65.1,59.1,29.90,SSE,147,3.0,7.0,81,0.00,,,0.00,WeatherCatV1.20B785,2013-07-22 00:04:00,
2013-07-22 01:09:00,65.0,59.0,29.90,ESE,105,6.0,6.0,81,0.00,,,0.00,WeatherCatV1.20B785,2013-07-22 00:09:00,
2013-07-22 01:14:00,64.9,58.9,29.90,SE,127,3.0,7.0,81,0.00,,,0.00,WeatherCatV1.20B785,2013-07-22 00:14:00,
2013-07-22 01:19:00,64.9,58.9,29.90,SE,145,1.0,3.0,81,0.00,,,0.00,WeatherCatV1.20B785,2013-07-22 00:19:00,
2013-07-22 01:24:00,64.8,58.8,29.90,East,96,3.0,8.0,81,0.00,,,0.00,WeatherCatV1.20B785,2013-07-22 00:24:00,
2013-07-22 01:29:00,64.7,58.7,29.90,NNW,340,0.0,8.0,81,0.00,,,0.00,WeatherCatV1.20B785,2013-07-22 00:29:00,
2013-07-22 01:34:00,64.6,58.6,29.90,SSE,156,0.0,4.0,81,0.00,,,0.00,WeatherCatV1.20B785,2013-07-22 00:34:00,
2013-07-22 01:39:00,64.6,58.6,29.90,SE,136,0.0,4.0,81,0.00,,,0.00,WeatherCatV1.20B785,2013-07-22 00:39:00,
2013-07-22 01:44:00,64.5,58.5,29.90,WNW,293,1.0,4.0,81,0.00,,,0.00,WeatherCatV1.20B785,2013-07-22 00:44:00,
2013-07-22 01:49:00,64.5,58.5,29.89,SE,141,1.0,3.0,81,0.00,,,0.00,WeatherCatV1.20B785,2013-07-22 00:49:00,
2013-07-22 01:54:00,64.5,58.5,29.89,ESE,118,1.0,1.0,81,0.00,,,0.00,WeatherCatV1.20B785,2013-07-22 00:54:00,
2013-07-22 01:59:00,64.4,58.4,29.89,South,186,1.0,2.0,81,0.00,,,0.00,WeatherCatV1.20B785,2013-07-22 00:59:00,
2013-07-22 02:04:00,64.3,58.3,29.89,NNE,13,0.0,5.0,81,0.00,,,0.00,WeatherCatV1.20B785,2013-07-22 01:04:00,
2013-07-22 02:09:00,64.3,58.7,29.89,NNE,24,2.0,2.0,82,0.00,,,0.00,WeatherCatV1.20B785,2013-07-22 01:09:00,
2013-07-22 02:14:00,64.2,58.2,29.89,ESE,110,2.0,3.0,81,0.00,,,0.00,WeatherCatV1.20B785,2013-07-22 01:14:00,
2013-07-22 02:19:00,64.1,58.1,29.89,ESE,110,1.0,5.0,81,0.00,,,0.00,WeatherCatV1.20B785,2013-07-22 01:19:00,
2013-07-22 02:24:00,64.1,58.1,29.89,ENE,74,3.0,5.0,81,0.00,,,0.00,WeatherCatV1.20B785,2013-07-22 01:24:00,
2013-07-22 02:29:00,64.2,58.2,29.88,ESE,111,4.0,5.0,81,0.00,,,0.00,WeatherCatV1.20B785,2013-07-22 01:29:00,
2013-07-22 02:34:00,64.2,58.2,29.88,North,6,2.0,2.0,81,0.00,,,0.00,WeatherCatV1.20B785,2013-07-22 01:34:00,
2013-07-22 02:39:00,64.2,58.2,29.88,NNW,340,1.0,4.0,81,0.00,,,0.00,WeatherCatV1.20B785,2013-07-22 01:39:00,
2013-07-22 02:44:00,64.1,58.1,29.88,North,352,2.0,3.0,81,0.00,,,0.00,WeatherCatV1.20B785,2013-07-22 01:44:00,
2013-07-22 02:49:00,64.1,58.1,29.88,NNW,335,1.0,1.0,81,0.00,,,0.00,WeatherCatV1.20B785,2013-07-22 01:49:00,
2013-07-22 02:54:00,64.1,58.1,29.87,NW,325,1.0,3.0,81,0.00,,,0.00,WeatherCatV1.20B785,2013-07-22 01:54:00,
2013-07-22 02:59:00,64.0,58.0,29.87,NNE,13,0.0,3.0,81,0.00,,,0.00,WeatherCatV1.20B785,2013-07-22 01:59:00,
2013-07-22 03:04:00,64.0,58.0,29.87,NNW,330,0.0,2.0,81,0.00,,,0.00,WeatherCatV1.20B785,2013-07-22 02:04:00,
2013-07-22 03:09:00,64.0,58.0,29.87,NNW,327,2.0,2.0,81,0.00,,,0.00,WeatherCatV1.20B785,2013-07-22 02:09:00,
2013-07-22 03:14:00,63.9,58.3,29.87,NNW,330,0.0,1.0,82,0.00,,,0.00,WeatherCatV1.20B785,2013-07-22 02:14:00,
2013-07-22 03:19:00,63.8,58.2,29.87,NNW,327,1.0,1.0,82,0.00,,,0.00,WeatherCatV1.20B785,2013-07-22 02:19:00,
2013-07-22 03:24:00,63.7,58.1,29.87,NE,55,1.0,1.0,82,0.00,,,0.00,WeatherCatV1.20B785,2013-07-22 02:24:00,
2013-07-22 03:29:00,63.7,58.1,29.87,NE,46,1.0,1.0,82,0.00,,,0.00,WeatherCatV1.20B785,2013-07-22 02:29:00,
2013-07-22 03:34:00,63.9,58.0,29.87,NNW,338,1.0,2.0,81,0.00,,,0.00,WeatherCatV1.20B785,2013-07-22 02:34:00,
2013-07-22 03:39:00,64.0,58.0,29.87,NNE,12,0.0,4.0,81,0.00,,,0.00,WeatherCatV1.20B785,2013-07-22 02:39:00,
2013-07-22 03:44:00,64.1,58.1,29.87,North,1,1.0,1.0,81,0.00,,,0.00,WeatherCatV1.20B785,2013-07-22 02:44:00,
2013-07-22 03:49:00,64.1,58.1,29.86,NNW,328,2.0,3.0,81,0.00,,,0.00,WeatherCatV1.20B785,2013-07-22 02:49:00,
2013-07-22 03:54:00,63.9,58.0,29.86,North,7,3.0,4.0,81,0.00,,,0.00,WeatherCatV1.20B785,2013-07-22 02:54:00,
2013-07-22 03:59:00,63.7,58.1,29.86,West,264,0.0,2.0,82,0.00,,,0.00,WeatherCatV1.20B785,2013-07-22 02:59:00,
2013-07-22 04:04:00,63.5,57.9,29.86,NNE,33,0.0,1.0,82,0.00,,,0.00,WeatherCatV1.20B785,2013-07-22 03:04:00,
2013-07-22 04:09:00,63.4,58.1,29.86,East,80,1.0,1.0,83,0.00,,,0.00,WeatherCatV1.20B785,2013-07-22 03:09:00,
2013-07-22 04:14:00,63.3,58.0,29.86,NNE,16,5.0,5.0,83,0.00,,,0.00,WeatherCatV1.20B785,2013-07-22 03:14:00,
2013-07-22 04:19:00,63.2,58.0,29.86,NW,304,1.0,5.0,83,0.00,,,0.00,WeatherCatV1.20B785,2013-07-22 03:19:00,
2013-07-22 04:24:00,63.1,57.8,29.86,North,359,1.0,2.0,83,0.00,,,0.00,WeatherCatV1.20B785,2013-07-22 03:24:00,
2013-07-22 04:29:00,63.0,57.8,29.86,NNW,345,1.0,2.0,83,0.00,,,0.00,WeatherCatV1.20B785,2013-07-22 03:29:00,
2013-07-22 04:34:00,62.9,57.7,29.86,NNW,343,0.0,3.0,83,0.00,,,0.00,WeatherCatV1.20B785,2013-07-22 03:34:00,
2013-07-22 04:39:00,62.9,57.7,29.86,NNE,26,0.0,2.0,83,0.00,,,0.00,WeatherCatV1.20B785,2013-07-22 03:39:00,
2013-07-22 04:44:00,62.9,58.0,29.86,NW,321,0.0,2.0,84,0.00,,,0.00,WeatherCatV1.20B785,2013-07-22 03:44:00,
2013-07-22 04:49:00,62.9,58.0,29.86,NNW,330,1.0,2.0,84,0.00,,,0.00,WeatherCatV1.20B785,2013-07-22 03:49:00,
2013-07-22 04:54:00,62.8,57.5,29.86,NW,305,1.0,2.0,83,0.00,,,0.00,WeatherCatV1.20B785,2013-07-22 03:54:00,
2013-07-22 04:59:00,62.8,57.9,29.86,NNW,327,1.0,1.0,84,0.00,,,0.00,WeatherCatV1.20B785,2013-07-22 03:59:00,
2013-07-22 05:01:00,62.8,57.9,29.86,North,352,2.0,3.0,84,0.00,,,0.00,WeatherCatV1.20B785,2013-07-22 04:01:00,
2013-07-22 05:06:00,62.8,57.9,29.86,NW,321,0.0,1.0,84,0.00,,,0.00,WeatherCatV1.20B785,2013-07-22 04:06:00,
2013-07-22 05:11:00,62.7,57.8,29.86,NNW,327,1.0,2.0,84,0.00,,,0.00,WeatherCatV1.20B785,2013-07-22 04:11:00,
2013-07-22 05:16:00,62.6,57.7,29.86,NW,323,1.0,4.0,84,0.00,,,0.00,WeatherCatV1.20B785,2013-07-22 04:16:00,
2013-07-22 05:21:00,62.5,57.6,29.86,NNW,345,1.0,2.0,84,0.00,,,0.00,WeatherCatV1.20B785,2013-07-22 04:21:00,
2013-07-22 05:26:00,62.5,57.6,29.85,NNW,327,1.0,4.0,84,0.00,,,0.00,WeatherCatV1.20B785,2013-07-22 04:26:00,
2013-07-22 05:31:00,62.4,57.5,29.85,NW,321,3.0,5.0,84,0.00,,,0.00,WeatherCatV1.20B785,2013-07-22 04:31:00,
2013-07-22 05:36:00,62.3,57.4,29.85,NNE,16,2.0,6.0,84,0.00,,,0.00,WeatherCatV1.20B785,2013-07-22 04:36:00,
2013-07-22 05:41:00,62.2,57.6,29.85,NNW,330,0.0,1.0,85,0.00,,,0.00,WeatherCatV1.20B785,2013-07-22 04:41:00,
2013-07-22 05:46:00,62.1,57.5,29.85,NW,319,2.0,4.0,85,0.00,,,0.00,WeatherCatV1.20B785,2013-07-22 04:46:00,
2013-07-22 05:51:00,62.1,57.5,29.85,NNW,345,2.0,3.0,85,0.00,,,0.00,WeatherCatV1.20B785,2013-07-22 04:51:00,
2013-07-22 05:56:00,62.1,57.5,29.85,NW,311,0.0,1.0,85,0.00,,,0.00,WeatherCatV1.20B785,2013-07-22 04:56:00,
2013-07-22 06:01:00,62.1,57.5,29.85,North,8,2.0,4.0,85,0.00,,,0.00,WeatherCatV1.20B785,2013-07-22 05:01:00,
2013-07-22 06:06:00,62.1,57.5,29.85,NNE,13,2.0,2.0,85,0.00,,,0.00,WeatherCatV1.20B785,2013-07-22 05:06:00,
2013-07-22 06:11:00,62.2,57.6,29.85,NW,321,1.0,3.0,85,0.00,,,0.00,WeatherCatV1.20B785,2013-07-22 05:11:00,
2013-07-22 06:16:00,62.2,57.6,29.84,NNW,330,1.0,3.0,85,0.00,,,0.00,WeatherCatV1.20B785,2013-07-22 05:16:00,
2013-07-22 06:21:00,62.2,57.6,29.84,NNE,33,5.0,5.0,85,0.00,,,0.00,WeatherCatV1.20B785,2013-07-22 05:21:00,
2013-07-22 06:26:00,62.2,57.6,29.85,NNE,22,2.0,3.0,85,0.00,,,0.00,WeatherCatV1.20B785,2013-07-22 05:26:00,
2013-07-22 06:31:00,62.3,57.7,29.84,NW,326,1.0,5.0,85,0.00,,,0.00,WeatherCatV1.20B785,2013-07-22 05:31:00,
2013-07-22 06:36:00,62.2,57.6,29.84,North,356,1.0,2.0,85,0.00,,,0.00,WeatherCatV1.20B785,2013-07-22 05:36:00,
2013-07-22 06:41:00,62.3,57.7,29.84,NNW,340,1.0,2.0,85,0.00,,,0.00,WeatherCatV1.20B785,2013-07-22 05:41:00,
2013-07-22 06:46:00,62.3,57.4,29.84,NNW,347,1.0,4.0,84,0.00,,,0.00,WeatherCatV1.20B785,2013-07-22 05:46:00,
2013-07-22 06:51:00,62.3,57.7,29.85,North,359,2.0,3.0,85,0.00,,,0.00,WeatherCatV1.20B785,2013-07-22 05:51:00,
2013-07-22 06:56:00,62.4,57.8,29.84,NE,37,0.0,2.0,85,0.00,,,0.00,WeatherCatV1.20B785,2013-07-22 05:56:00,
2013-07-22 07:01:00,62.5,57.6,29.85,NW,318,1.0,4.0,84,0.00,,,0.00,WeatherCatV1.20B785,2013-07-22 06:01:00,
2013-07-22 07:06:00,62.4,57.8,29.84,NW,320,1.0,5.0,85,0.00,,,0.00,WeatherCatV1.20B785,2013-07-22 06:06:00,
2013-07-22 07:11:00,62.4,57.8,29.84,NNE,22,1.0,4.0,85,0.00,,,0.00,WeatherCatV1.20B785,2013-07-22 06:11:00,
2013-07-22 07:16:00,62.5,57.9,29.84,NNW,338,1.0,5.0,85,0.00,,,0.00,WeatherCatV1.20B785,2013-07-22 06:16:00,
2013-07-22 07:21:00,62.5,57.9,29.84,North,11,2.0,5.0,85,0.00,,,0.00,WeatherCatV1.20B785,2013-07-22 06:21:00,
2013-07-22 07:26:00,62.7,58.1,29.84,NNE,33,3.0,4.0,85,0.00,,,0.00,WeatherCatV1.20B785,2013-07-22 06:26:00,
2013-07-22 07:31:00,62.9,58.3,29.84,North,5,5.0,7.0,85,0.00,,,0.00,WeatherCatV1.20B785,2013-07-22 06:31:00,
2013-07-22 07:36:00,63.0,58.4,29.84,NNW,333,2.0,5.0,85,0.00,,,0.00,WeatherCatV1.20B785,2013-07-22 06:36:00,
2013-07-22 07:41:00,63.0,58.4,29.84,NE,37,7.0,7.0,85,0.00,,,0.00,WeatherCatV1.20B785,2013-07-22 06:41:00,
2013-07-22 07:46:00,63.2,58.6,29.84,NW,319,2.0,5.0,85,0.00,,,0.00,WeatherCatV1.20B785,2013-07-22 06:46:00,
2013-07-22 07:51:00,63.5,58.9,29.84,NNE,17,4.0,4.0,85,0.00,,,0.00,WeatherCatV1.20B785,2013-07-22 06:51:00,
2013-07-22 07:56:00,63.6,59.0,29.84,NW,321,1.0,3.0,85,0.00,,,0.00,WeatherCatV1.20B785,2013-07-22 06:56:00,
2013-07-22 08:01:00,63.6,59.0,29.84,NNW,327,3.0,5.0,85,0.00,,,0.00,WeatherCatV1.20B785,2013-07-22 07:01:00,
2013-07-22 08:06:00,64.0,59.4,29.84,NNE,23,6.0,6.0,85,0.00,,,0.00,WeatherCatV1.20B785,2013-07-22 07:06:00,
2013-07-22 08:11:00,64.1,59.2,29.84,NNW,338,1.0,4.0,84,0.00,,,0.00,WeatherCatV1.20B785,2013-07-22 07:11:00,
2013-07-22 08:16:00,64.4,59.1,29.84,NE,36,7.0,8.0,83,0.00,,,0.00,WeatherCatV1.20B785,2013-07-22 07:16:00,
2013-07-22 08:21:00,64.7,59.4,29.84,NNW,327,1.0,3.0,83,0.00,,,0.00,WeatherCatV1.20B785,2013-07-22 07:21:00,
2013-07-22 08:26:00,65.0,59.4,29.83,NW,304,3.0,7.0,82,0.00,,,0.00,WeatherCatV1.20B785,2013-07-22 07:26:00,
2013-07-22 08:31:00,65.0,59.4,29.83,NNW,338,1.0,5.0,82,0.00,,,0.00,WeatherCatV1.20B785,2013-07-22 07:31:00,
2013-07-22 08:36:00,65.0,59.4,29.83,NNW,333,2.0,5.0,82,0.00,,,0.00,WeatherCatV1.20B785,2013-07-22 07:36:00,
2013-07-22 08:41:00,65.0,59.4,29.83,North,359,3.0,7.0,82,0.00,,,0.00,WeatherCatV1.20B785,2013-07-22 07:41:00,
2013-07-22 08:46:00,65.3,59.7,29.83,NE,36,7.0,7.0,82,0.00,,,0.00,WeatherCatV1.20B785,2013-07-22 07:46:00,
2013-07-22 08:51:00,65.6,60.0,29.83,NNW,345,2.0,5.0,82,0.00,,,0.00,WeatherCatV1.20B785,2013-07-22 07:51:00,
2013-07-22 08:56:00,66.0,60.3,29.83,North,1,3.0,3.0,82,0.00,,,0.00,WeatherCatV1.20B785,2013-07-22 07:56:00,
2013-07-22 09:01:00,66.3,60.3,29.83,NW,325,2.0,4.0,81,0.00,,,0.00,WeatherCatV1.20B785,2013-07-22 08:01:00,
2013-07-22 09:06:00,66.6,60.2,29.83,NE,36,4.0,5.0,80,0.00,,,0.00,WeatherCatV1.20B785,2013-07-22 08:06:00,
2013-07-22 09:11:00,66.7,60.3,29.84,NE,41,7.0,7.0,80,0.00,,,0.00,WeatherCatV1.20B785,2013-07-22 08:11:00,
2013-07-22 09:16:00,66.8,60.1,29.83,NNE,19,1.0,4.0,79,0.00,,,0.00,WeatherCatV1.20B785,2013-07-22 08:16:00,
2013-07-22 09:21:00,67.1,60.4,29.83,NNE,33,2.0,6.0,79,0.00,,,0.00,WeatherCatV1.20B785,2013-07-22 08:21:00,
2013-07-22 09:26:00,67.3,60.5,29.83,NNW,335,1.0,6.0,79,0.00,,,0.00,WeatherCatV1.20B785,2013-07-22 08:26:00,
2013-07-22 09:31:00,67.6,60.8,29.83,NNE,16,1.0,5.0,79,0.00,,,0.00,WeatherCatV1.20B785,2013-07-22 08:31:00,
2013-07-22 09:36:00,67.7,60.9,29.82,NW,316,2.0,4.0,79,0.00,,,0.00,WeatherCatV1.20B785,2013-07-22 08:36:00,
2013-07-22 09:41:00,68.1,61.3,29.83,ESE,105,1.0,4.0,79,0.00,,,0.00,WeatherCatV1.20B785,2013-07-22 08:41:00,
2013-07-22 09:46:00,68.3,60.8,29.83,NNW,345,2.0,5.0,77,0.00,,,0.00,WeatherCatV1.20B785,2013-07-22 08:46:00,
2013-07-22 09:51:00,68.4,61.3,29.83,NW,325,0.0,2.0,78,0.00,,,0.00,WeatherCatV1.20B785,2013-07-22 08:51:00,
2013-07-22 09:56:00,68.8,61.3,29.83,North,4,5.0,6.0,77,0.00,,,0.00,WeatherCatV1.20B785,2013-07-22 08:56:00,
2013-07-22 10:01:00,68.8,61.7,29.83,NNE,13,1.0,6.0,78,0.00,,,0.00,WeatherCatV1.20B785,2013-07-22 09:01:00,
2013-07-22 10:06:00,69.0,61.8,29.83,East,95,3.0,3.0,78,0.00,,,0.00,WeatherCatV1.20B785,2013-07-22 09:06:00,
2013-07-22 10:11:00,69.2,61.7,29.82,SSE,147,2.0,2.0,77,0.00,,,0.00,WeatherCatV1.20B785,2013-07-22 09:11:00,
2013-07-22 10:16:00,69.7,61.8,29.82,NE,55,1.0,7.0,76,0.00,,,0.00,WeatherCatV1.20B785,2013-07-22 09:16:00,
2013-07-22 10:21:00,70.3,62.0,29.82,SE,128,4.0,4.0,75,0.00,,,0.00,WeatherCatV1.20B785,2013-07-22 09:21:00,
2013-07-22 10:26:00,70.3,62.0,29.82,SE,145,2.0,5.0,75,0.00,,,0.00,WeatherCatV1.20B785,2013-07-22 09:26:00,
2013-07-22 10:31:00,70.5,61.8,29.82,SE,145,3.0,8.0,74,0.00,,,0.00,WeatherCatV1.20B785,2013-07-22 09:31:00,
2013-07-22 10:36:00,70.6,61.5,29.82,SE,140,3.0,9.0,73,0.00,,,0.00,WeatherCatV1.20B785,2013-07-22 09:36:00,
2013-07-22 10:41:00,71.1,62.4,29.81,ESE,117,2.0,5.0,74,0.00,,,0.00,WeatherCatV1.20B785,2013-07-22 09:41:00,
2013-07-22 10:46:00,71.8,62.3,29.81,ESE,111,8.0,8.0,72,0.00,,,0.00,WeatherCatV1.20B785,2013-07-22 09:46:00,
2013-07-22 10:51:00,71.4,61.9,29.81,ESE,110,4.0,7.0,72,0.00,,,0.00,WeatherCatV1.20B785,2013-07-22 09:51:00,
2013-07-22 10:56:00,71.3,62.2,29.81,SE,146,3.0,5.0,73,0.00,,,0.00,WeatherCatV1.20B785,2013-07-22 09:56:00,
2013-07-22 11:01:00,71.9,62.8,29.81,East,81,6.0,6.0,73,0.00,,,0.00,WeatherCatV1.20B785,2013-07-22 10:01:00,
2013-07-22 11:06:00,72.1,62.6,29.81,ENE,71,3.0,5.0,72,0.00,,,0.00,WeatherCatV1.20B785,2013-07-22 10:06:00,
2013-07-22 11:11:00,72.2,62.7,29.82,WNW,285,1.0,3.0,72,0.00,,,0.00,WeatherCatV1.20B785,2013-07-22 10:11:00,
2013-07-22 11:16:00,72.0,62.5,29.81,SE,139,1.0,5.0,72,0.00,,,0.00,WeatherCatV1.20B785,2013-07-22 10:16:00,
2013-07-22 11:21:00,72.3,62.8,29.81,East,84,3.0,5.0,72,0.00,,,0.00,WeatherCatV1.20B785,2013-07-22 10:21:00,
2013-07-22 11:26:00,72.4,62.5,29.81,East,89,1.0,7.0,71,0.00,,,0.00,WeatherCatV1.20B785,2013-07-22 10:26:00,
2013-07-22 11:31:00,72.3,62.8,29.81,SE,134,0.0,4.0,72,0.00,,,0.00,WeatherCatV1.20B785,2013-07-22 10:31:00,
2013-07-22 11:36:00,72.9,63.3,29.81,SE,126,1.0,6.0,72,0.00,,,0.00,WeatherCatV1.20B785,2013-07-22 10:36:00,
2013-07-22 11:41:00,73.3,63.3,29.81,East,99,5.0,6.0,71,0.00,,,0.00,WeatherCatV1.20B785,2013-07-22 10:41:00,
2013-07-22 11:46:00,73.0,63.0,29.81,SE,131,3.0,7.0,71,0.00,,,0.00,WeatherCatV1.20B785,2013-07-22 10:46:00,
2013-07-22 11:51:00,73.1,63.1,29.81,SE,130,7.0,10.0,71,0.00,,,0.00,WeatherCatV1.20B785,2013-07-22 10:51:00,
2013-07-22 11:56:00,73.0,63.0,29.81,SE,141,5.0,6.0,71,0.00,,,0.00,WeatherCatV1.20B785,2013-07-22 10:56:00,
2013-07-22 12:01:00,73.3,62.9,29.80,SE,142,2.0,9.0,70,0.00,,,0.00,WeatherCatV1.20B785,2013-07-22 11:01:00,
2013-07-22 12:06:00,73.1,63.1,29.81,SE,146,3.0,7.0,71,0.00,,,0.00,WeatherCatV1.20B785,2013-07-22 11:06:00,
2013-07-22 12:11:00,73.0,63.4,29.81,East,86,2.0,5.0,72,0.00,,,0.00,WeatherCatV1.20B785,2013-07-22 11:11:00,
2013-07-22 12:16:00,73.2,63.2,29.81,SE,146,4.0,8.0,71,0.00,,,0.00,WeatherCatV1.20B785,2013-07-22 11:16:00,
2013-07-22 12:21:00,72.9,63.3,29.80,ESE,118,6.0,9.0,72,0.00,,,0.00,WeatherCatV1.20B785,2013-07-22 11:21:00,
2013-07-22 12:26:00,72.9,63.3,29.80,ESE,116,4.0,7.0,72,0.00,,,0.00,WeatherCatV1.20B785,2013-07-22 11:26:00,
2013-07-22 12:31:00,72.8,63.6,29.81,SE,136,3.0,8.0,73,0.00,,,0.00,WeatherCatV1.20B785,2013-07-22 11:31:00,
2013-07-22 12:36:00,72.6,63.8,29.81,ESE,122,6.0,7.0,74,0.00,,,0.00,WeatherCatV1.20B785,2013-07-22 11:36:00,
2013-07-22 12:41:00,72.4,63.6,29.81,SE,124,4.0,6.0,74,0.00,,,0.00,WeatherCatV1.20B785,2013-07-22 11:41:00,
2013-07-22 12:46:00,72.2,63.4,29.81,South,174,4.0,6.0,74,0.00,,,0.00,WeatherCatV1.20B785,2013-07-22 11:46:00,
2013-07-22 12:51:00,72.0,62.9,29.80,SSE,148,4.0,10.0,73,0.00,,,0.00,WeatherCatV1.20B785,2013-07-22 11:51:00,
2013-07-22 12:56:00,71.9,63.2,29.81,SSW,197,4.0,11.0,74,0.00,,,0.00,WeatherCatV1.20B785,2013-07-22 11:56:00,
2013-07-22 13:01:00,71.4,63.0,29.81,South,172,8.0,9.0,75,0.00,,,0.00,WeatherCatV1.20B785,2013-07-22 12:01:00,
2013-07-22 13:06:00,71.2,63.2,29.81,South,184,7.0,8.0,76,0.00,,,0.00,WeatherCatV1.20B785,2013-07-22 12:06:00,
2013-07-22 13:11:00,70.9,62.9,29.81,SSW,203,4.0,8.0,76,0.00,,,0.00,WeatherCatV1.20B785,2013-07-22 12:11:00,
2013-07-22 13:16:00,70.8,63.2,29.81,SSW,201,3.0,7.0,77,0.00,,,0.00,WeatherCatV1.20B785,2013-07-22 12:16:00,
2013-07-22 13:21:00,70.6,63.0,29.81,South,189,6.0,8.0,77,0.00,,,0.00,WeatherCatV1.20B785,2013-07-22 12:21:00,
2013-07-22 13:26:00,70.4,62.8,29.81,SSE,153,7.0,10.0,77,0.00,,,0.00,WeatherCatV1.20B785,2013-07-22 12:26:00,
2013-07-22 13:31:00,70.3,63.1,29.81,South,173,4.0,4.0,78,0.00,,,0.00,WeatherCatV1.20B785,2013-07-22 12:31:00,
2013-07-22 13:36:00,70.5,62.6,29.81,South,183,6.0,8.0,76,0.00,,,0.00,WeatherCatV1.20B785,2013-07-22 12:36:00,
2013-07-22 13:41:00,70.7,62.8,29.81,SE,141,5.0,10.0,76,0.00,,,0.00,WeatherCatV1.20B785,2013-07-22 12:41:00,
2013-07-22 13:46:00,70.8,62.5,29.81,South,184,5.0,9.0,75,0.00,,,0.00,WeatherCatV1.20B785,2013-07-22 12:46:00,
2013-07-22 13:51:00,70.9,62.6,29.81,SSW,197,5.0,7.0,75,0.00,,,0.00,WeatherCatV1.20B785,2013-07-22 12:51:00,
2013-07-22 13:56:00,71.0,62.7,29.81,South,170,5.0,9.0,75,0.00,,,0.00,WeatherCatV1.20B785,2013-07-22 12:56:00,
2013-07-22 14:01:00,71.1,62.8,29.81,South,172,6.0,9.0,75,0.00,,,0.00,WeatherCatV1.20B785,2013-07-22 13:01:00,
2013-07-22 14:06:00,71.1,63.1,29.81,SSE,158,5.0,8.0,76,0.00,,,0.00,WeatherCatV1.20B785,2013-07-22 13:06:00,
2013-07-22 14:11:00,71.4,63.4,29.81,East,91,2.0,2.0,76,0.00,,,0.00,WeatherCatV1.20B785,2013-07-22 13:11:00,
2013-07-22 14:16:00,71.7,63.0,29.81,ESE,122,4.0,5.0,74,0.00,,,0.00,WeatherCatV1.20B785,2013-07-22 13:16:00,
2013-07-22 14:21:00,71.8,63.0,29.80,South,170,6.0,8.0,74,0.00,,,0.00,WeatherCatV1.20B785,2013-07-22 13:21:00,
2013-07-22 14:26:00,71.9,63.2,29.80,SE,128,4.0,7.0,74,0.00,,,0.00,WeatherCatV1.20B785,2013-07-22 13:26:00,
2013-07-22 14:31:00,71.9,63.2,29.80,SE,136,6.0,7.0,74,0.00,,,0.00,WeatherCatV1.20B785,2013-07-22 13:31:00,
2013-07-22 14:36:00,72.0,63.2,29.80,SE,140,5.0,8.0,74,0.00,,,0.00,WeatherCatV1.20B785,2013-07-22 13:36:00,
2013-07-22 14:41:00,71.7,63.3,29.80,ESE,122,4.0,6.0,75,0.00,,,0.00,WeatherCatV1.20B785,2013-07-22 13:41:00,
2013-07-22 14:46:00,71.7,63.3,29.80,SSE,168,4.0,8.0,75,0.00,,,0.00,WeatherCatV1.20B785,2013-07-22 13:46:00,
2013-07-22 14:51:00,71.7,63.3,29.80,SSE,147,4.0,8.0,75,0.00,,,0.00,WeatherCatV1.20B785,2013-07-22 13:51:00,
2013-07-22 14:56:00,71.8,63.4,29.80,SSE,159,4.0,6.0,75,0.00,,,0.00,WeatherCatV1.20B785,2013-07-22 13:56:00,
2013-07-22 15:01:00,71.6,63.2,29.80,SSE,148,3.0,5.0,75,0.00,,,0.00,WeatherCatV1.20B785,2013-07-22 14:01:00,
2013-07-22 15:06:00,71.6,63.6,29.80,ESE,116,3.0,5.0,76,0.00,,,0.00,WeatherCatV1.20B785,2013-07-22 14:06:00,
2013-07-22 15:11:00,71.4,63.4,29.80,SE,136,3.0,7.0,76,0.00,,,0.00,WeatherCatV1.20B785,2013-07-22 14:11:00,
2013-07-22 15:16:00,71.4,63.4,29.80,SSE,152,1.0,5.0,76,0.00,,,0.00,WeatherCatV1.20B785,2013-07-22 14:16:00,
2013-07-22 15:21:00,71.5,63.5,29.79,SSE,151,3.0,6.0,76,0.00,,,0.00,WeatherCatV1.20B785,2013-07-22 14:21:00,
2013-07-22 15:26:00,71.3,63.3,29.79,SE,143,6.0,7.0,76,0.00,,,0.00,WeatherCatV1.20B785,2013-07-22 14:26:00,
2013-07-22 15:31:00,71.2,63.6,29.79,ESE,107,7.0,7.0,77,0.00,,,0.00,WeatherCatV1.20B785,2013-07-22 14:31:00,
2013-07-22 15:36:00,71.0,63.4,29.79,South,172,5.0,9.0,77,0.00,,,0.00,WeatherCatV1.20B785,2013-07-22 14:36:00,
2013-07-22 15:41:00,70.8,63.6,29.79,ESE,106,4.0,8.0,78,0.00,,,0.00,WeatherCatV1.20B785,2013-07-22 14:41:00,
2013-07-22 15:46:00,70.7,63.5,29.79,SSE,166,5.0,7.0,78,0.00,,,0.00,WeatherCatV1.20B785,2013-07-22 14:46:00,
2013-07-22 15:51:00,70.6,63.8,29.79,SSE,162,5.0,6.0,79,0.00,,,0.00,WeatherCatV1.20B785,2013-07-22 14:51:00,
2013-07-22 15:56:00,70.4,63.9,29.79,SE,142,4.0,6.0,80,0.00,,,0.00,WeatherCatV1.20B785,2013-07-22 14:56:00,
2013-07-22 16:01:00,70.2,63.7,29.79,SSE,148,6.0,8.0,80,0.00,,,0.00,WeatherCatV1.20B785,2013-07-22 15:01:00,
2013-07-22 16:06:00,70.0,63.5,29.79,SW,232,7.0,9.0,80,0.00,,,0.00,WeatherCatV1.20B785,2013-07-22 15:06:00,
2013-07-22 16:11:00,69.7,63.6,29.79,SE,146,3.0,7.0,81,0.00,,,0.00,WeatherCatV1.20B785,2013-07-22 15:11:00,
2013-07-22 16:16:00,69.5,63.8,29.79,SE,124,4.0,6.0,82,0.00,,,0.00,WeatherCatV1.20B785,2013-07-22 15:16:00,
2013-07-22 16:21:00,69.4,63.7,29.79,SSW,207,6.0,6.0,82,0.00,,,0.00,WeatherCatV1.20B785,2013-07-22 15:21:00,
2013-07-22 16:26:00,69.4,64.0,29.79,SSE,165,9.0,9.0,83,0.00,,,0.00,WeatherCatV1.20B785,2013-07-22 15:26:00,
2013-07-22 16:31:00,69.3,63.9,29.79,SE,135,4.0,9.0,83,0.00,,,0.00,WeatherCatV1.20B785,2013-07-22 15:31:00,
2013-07-22 16:36:00,69.4,64.0,29.79,SSE,158,7.0,10.0,83,0.00,,,0.00,WeatherCatV1.20B785,2013-07-22 15:36:00,
2013-07-22 16:41:00,69.3,63.6,29.79,South,186,6.0,8.0,82,0.00,,,0.00,WeatherCatV1.20B785,2013-07-22 15:41:00,
2013-07-22 16:46:00,69.2,63.5,29.79,SSE,158,5.0,8.0,82,0.00,,,0.00,WeatherCatV1.20B785,2013-07-22 15:46:00,
2013-07-22 16:51:00,69.1,63.7,29.79,SSE,158,4.0,7.0,83,0.00,,,0.00,WeatherCatV1.20B785,2013-07-22 15:51:00,
2013-07-22 16:54:00,69.1,63.7,29.79,South,188,2.0,5.0,83,0.00,,,0.00,WeatherCatV1.20B785,2013-07-22 15:54:00,
2013-07-22 16:59:00,69.3,63.9,29.79,SSE,166,7.0,9.0,83,0.00,,,0.00,WeatherCatV1.20B785,2013-07-22 15:59:00,
2013-07-22 17:04:00,69.3,63.9,29.79,SSE,150,4.0,7.0,83,0.00,,,0.00,WeatherCatV1.20B785,2013-07-22 16:04:00,
2013-07-22 17:09:00,69.4,64.0,29.79,SE,135,3.0,7.0,83,0.00,,,0.00,WeatherCatV1.20B785,2013-07-22 16:09:00,
2013-07-22 17:14:00,69.4,63.7,29.79,SSE,152,6.0,6.0,82,0.00,,,0.00,WeatherCatV1.20B785,2013-07-22 16:14:00,
2013-07-22 17:19:00,69.3,63.9,29.79,SSE,162,5.0,7.0,83,0.00,,,0.00,WeatherCatV1.20B785,2013-07-22 16:19:00,
2013-07-22 17:24:00,69.4,64.0,29.78,ESE,115,3.0,6.0,83,0.00,,,0.00,WeatherCatV1.20B785,2013-07-22 16:24:00,
2013-07-22 17:29:00,69.7,64.3,29.78,SE,145,4.0,7.0,83,0.00,,,0.00,WeatherCatV1.20B785,2013-07-22 16:29:00,
2013-07-22 17:34:00,70.1,64.3,29.78,SSE,155,3.0,5.0,82,0.00,,,0.00,WeatherCatV1.20B785,2013-07-22 16:34:00,
2013-07-22 17:39:00,70.3,64.2,29.78,SE,145,2.0,7.0,81,0.00,,,0.00,WeatherCatV1.20B785,2013-07-22 16:39:00,
2013-07-22 17:44:00,70.3,64.2,29.78,SSE,165,5.0,5.0,81,0.00,,,0.00,WeatherCatV1.20B785,2013-07-22 16:44:00,
2013-07-22 17:49:00,70.3,64.2,29.78,SSE,147,2.0,4.0,81,0.00,,,0.00,WeatherCatV1.20B785,2013-07-22 16:49:00,
2013-07-22 17:54:00,70.3,64.2,29.78,SSE,151,4.0,6.0,81,0.00,,,0.00,WeatherCatV1.20B785,2013-07-22 16:54:00,
2013-07-22 17:59:00,70.2,64.1,29.78,SSE,153,6.0,7.0,81,0.00,,,0.00,WeatherCatV1.20B785,2013-07-22 16:59:00,
2013-07-22 18:04:00,70.2,64.1,29.78,SSE,149,3.0,7.0,81,0.00,,,0.00,WeatherCatV1.20B785,2013-07-22 17:04:00,
2013-07-22 18:09:00,70.1,64.0,29.78,SSE,160,6.0,7.0,81,0.00,,,0.00,WeatherCatV1.20B785,2013-07-22 17:09:00,
2013-07-22 18:14:00,70.2,64.4,29.78,SE,141,5.0,6.0,82,0.00,,,0.00,WeatherCatV1.20B785,2013-07-22 17:14:00,
2013-07-22 18:19:00,70.1,64.3,29.78,SE,134,5.0,6.0,82,0.00,,,0.00,WeatherCatV1.20B785,2013-07-22 17:19:00,
2013-07-22 18:24:00,70.5,64.4,29.78,SE,131,5.0,6.0,81,0.00,,,0.00,WeatherCatV1.20B785,2013-07-22 17:24:00,
2013-07-22 18:29:00,70.9,64.8,29.77,South,187,5.0,6.0,81,0.00,,,0.00,WeatherCatV1.20B785,2013-07-22 17:29:00,
2013-07-22 18:34:00,71.4,64.5,29.77,SE,132,4.0,8.0,79,0.00,,,0.00,WeatherCatV1.20B785,2013-07-22 17:34:00,
2013-07-22 18:39:00,71.5,64.6,29.77,SSE,165,3.0,7.0,79,0.00,,,0.00,WeatherCatV1.20B785,2013-07-22 17:39:00,
2013-07-22 18:44:00,71.4,64.5,29.78,SSE,162,5.0,7.0,79,0.00,,,0.00,WeatherCatV1.20B785,2013-07-22 17:44:00,
2013-07-22 18:49:00,71.0,64.5,29.78,SSE,162,8.0,8.0,80,0.00,,,0.00,WeatherCatV1.20B785,2013-07-22 17:49:00,
2013-07-22 18:54:00,70.3,64.5,29.78,WSW,239,8.0,10.0,82,0.00,,,0.00,WeatherCatV1.20B785,2013-07-22 17:54:00,
2013-07-22 18:59:00,69.5,64.4,29.77,SW,218,5.0,8.0,84,0.00,,,0.00,WeatherCatV1.20B785,2013-07-22 17:59:00,
2013-07-22 19:04:00,69.1,64.1,29.77,SW,219,7.0,8.0,84,0.00,,,0.00,WeatherCatV1.20B785,2013-07-22 18:04:00,
2013-07-22 19:09:00,69.0,63.6,29.77,SW,218,5.0,7.0,83,0.00,,,0.00,WeatherCatV1.20B785,2013-07-22 18:09:00,
2013-07-22 19:14:00,69.2,63.5,29.78,West,267,5.0,7.0,82,0.00,,,0.00,WeatherCatV1.20B785,2013-07-22 18:14:00,
2013-07-22 19:19:00,69.0,63.3,29.78,SW,222,3.0,6.0,82,0.00,,,0.00,WeatherCatV1.20B785,2013-07-22 18:19:00,
2013-07-22 19:24:00,69.0,63.3,29.78,West,266,7.0,9.0,82,0.00,,,0.00,WeatherCatV1.20B785,2013-07-22 18:24:00,
2013-07-22 19:29:00,68.8,63.1,29.78,SSW,205,3.0,6.0,82,0.00,,,0.00,WeatherCatV1.20B785,2013-07-22 18:29:00,
2013-07-22 19:34:00,68.8,63.4,29.78,SW,229,5.0,8.0,83,0.00,,,0.00,WeatherCatV1.20B785,2013-07-22 18:34:00,
2013-07-22 19:39:00,68.6,63.2,29.78,SW,222,6.0,8.0,83,0.00,,,0.00,WeatherCatV1.20B785,2013-07-22 18:39:00,
2013-07-22 19:44:00,68.4,63.0,29.78,SW,236,7.0,7.0,83,0.00,,,0.00,WeatherCatV1.20B785,2013-07-22 18:44:00,
2013-07-22 19:49:00,68.4,63.4,29.77,SW,217,6.0,7.0,84,0.00,,,0.00,WeatherCatV1.20B785,2013-07-22 18:49:00,
2013-07-22 19:54:00,68.1,63.8,29.77,SW,219,5.0,7.0,86,0.00,,,0.00,WeatherCatV1.20B785,2013-07-22 18:54:00,
2013-07-22 19:59:00,67.6,63.6,29.77,SW,235,4.0,8.0,87,0.00,,,0.00,WeatherCatV1.20B785,2013-07-22 18:59:00,
2013-07-22 20:04:00,67.4,64.0,29.78,WSW,239,5.0,5.0,89,0.00,,,0.00,WeatherCatV1.20B785,2013-07-22 19:04:00,
2013-07-22 20:09:00,67.2,63.8,29.78,West,273,5.0,6.0,89,0.00,,,0.00,WeatherCatV1.20B785,2013-07-22 19:09:00,
2013-07-22 20:14:00,66.9,63.5,29.78,SW,221,2.0,6.0,89,0.00,,,0.00,WeatherCatV1.20B785,2013-07-22 19:14:00,
2013-07-22 20:19:00,66.8,63.8,29.78,West,271,2.0,4.0,90,0.00,,,0.00,WeatherCatV1.20B785,2013-07-22 19:19:00,
2013-07-22 20:24:00,66.8,63.8,29.78,SW,226,4.0,5.0,90,0.00,,,0.00,WeatherCatV1.20B785,2013-07-22 19:24:00,
2013-07-22 20:29:00,66.8,63.8,29.78,West,279,1.0,2.0,90,0.00,,,0.00,WeatherCatV1.20B785,2013-07-22 19:29:00,
2013-07-22 20:34:00,66.8,63.8,29.78,WSW,253,2.0,4.0,90,0.00,,,0.00,WeatherCatV1.20B785,2013-07-22 19:34:00,
2013-07-22 20:39:00,66.8,63.8,29.78,WSW,242,2.0,2.0,90,0.00,,,0.00,WeatherCatV1.20B785,2013-07-22 19:39:00,
2013-07-22 20:44:00,66.7,63.0,29.78,WSW,246,3.0,4.0,88,0.00,,,0.00,WeatherCatV1.20B785,2013-07-22 19:44:00,
2013-07-22 20:49:00,66.7,63.0,29.78,West,271,3.0,4.0,88,0.00,,,0.00,WeatherCatV1.20B785,2013-07-22 19:49:00,
2013-07-22 20:54:00,66.6,62.9,29.78,West,272,3.0,4.0,88,0.00,,,0.00,WeatherCatV1.20B785,2013-07-22 19:54:00,
2013-07-22 20:59:00,66.6,62.9,29.78,WSW,243,3.0,3.0,88,0.00,,,0.00,WeatherCatV1.20B785,2013-07-22 19:59:00,
2013-07-22 21:04:00,66.6,62.9,29.78,West,281,1.0,2.0,88,0.00,,,0.00,WeatherCatV1.20B785,2013-07-22 20:04:00,
2013-07-22 21:09:00,66.6,63.2,29.78,West,274,1.0,1.0,89,0.00,,,0.00,WeatherCatV1.20B785,2013-07-22 20:09:00,
2013-07-22 21:14:00,66.6,62.9,29.78,West,272,1.0,3.0,88,0.00,,,0.00,WeatherCatV1.20B785,2013-07-22 20:14:00,
2013-07-22 21:17:00,66.6,62.9,29.78,West,269,1.0,3.0,88,0.00,,,0.00,WeatherCatV1.20B785,2013-07-22 20:17:00,
2013-07-22 21:22:00,66.5,62.8,29.78,SW,235,2.0,2.0,88,0.00,,,0.00,WeatherCatV1.20B785,2013-07-22 20:22:00,
2013-07-22 21:27:00,66.5,62.8,29.78,West,267,2.0,3.0,88,0.00,,,0.00,WeatherCatV1.20B785,2013-07-22 20:27:00,
2013-07-22 21:32:00,66.4,62.7,29.78,WSW,252,2.0,3.0,88,0.00,,,0.00,WeatherCatV1.20B785,2013-07-22 20:32:00,
2013-07-22 21:37:00,66.3,63.0,29.78,West,262,1.0,1.0,89,0.00,,,0.00,WeatherCatV1.20B785,2013-07-22 20:37:00,
2013-07-22 21:42:00,66.3,63.0,29.78,WSW,239,1.0,1.0,89,0.00,,,0.00,WeatherCatV1.20B785,2013-07-22 20:42:00,
2013-07-22 21:47:00,66.2,62.9,29.78,West,259,1.0,2.0,89,0.00,,,0.00,WeatherCatV1.20B785,2013-07-22 20:47:00,
2013-07-22 21:52:00,66.2,62.9,29.78,West,260,1.0,1.0,89,0.00,,,0.00,WeatherCatV1.20B785,2013-07-22 20:52:00,
2013-07-22 21:57:00,66.1,62.8,29.78,West,271,1.0,2.0,89,0.00,,,0.00,WeatherCatV1.20B785,2013-07-22 20:57:00,
2013-07-22 22:02:00,66.1,62.8,29.78,West,271,0.0,0.0,89,0.00,,,0.00,WeatherCatV1.20B785,2013-07-22 21:02:00,
2013-07-22 22:07:00,66.0,62.7,29.78,West,271,0.0,1.0,89,0.00,,,0.00,WeatherCatV1.20B785,2013-07-22 21:07:00,
2013-07-22 22:12:00,65.8,62.8,29.78,West,271,0.0,1.0,90,0.00,,,0.00,WeatherCatV1.20B785,2013-07-22 21:12:00,
2013-07-22 22:17:00,65.9,62.9,29.78,West,271,0.0,1.0,90,0.00,,,0.00,WeatherCatV1.20B785,2013-07-22 21:17:00,
2013-07-22 22:22:00,65.9,62.9,29.78,West,272,1.0,1.0,90,0.00,,,0.00,WeatherCatV1.20B785,2013-07-22 21:22:00,
2013-07-22 22:27:00,65.9,62.9,29.78,West,274,0.0,1.0,90,0.00,,,0.00,WeatherCatV1.20B785,2013-07-22 21:27:00,
2013-07-22 22:32:00,65.9,62.9,29.78,West,274,1.0,1.0,90,0.00,,,0.00,WeatherCatV1.20B785,2013-07-22 21:32:00,
2013-07-22 22:37:00,65.8,62.5,29.77,West,274,1.0,1.0,89,0.00,,,0.00,WeatherCatV1.20B785,2013-07-22 21:37:00,
2013-07-22 22:42:00,65.7,62.7,29.77,West,274,0.0,1.0,90,0.00,,,0.00,WeatherCatV1.20B785,2013-07-22 21:42:00,
2013-07-22 22:47:00,65.6,62.6,29.78,West,274,0.0,1.0,90,0.00,,,0.00,WeatherCatV1.20B785,2013-07-22 21:47:00,
2013-07-22 22:52:00,65.6,62.6,29.77,West,274,1.0,1.0,90,0.00,,,0.00,WeatherCatV1.20B785,2013-07-22 21:52:00,
2013-07-22 22:57:00,65.6,62.6,29.77,NNW,338,1.0,3.0,90,0.00,,,0.00,WeatherCatV1.20B785,2013-07-22 21:57:00,
2013-07-22 23:02:00,65.7,62.7,29.77,NW,323,0.0,1.0,90,0.00,,,0.00,WeatherCatV1.20B785,2013-07-22 22:02:00,
2013-07-22 23:07:00,65.8,62.8,29.77,NW,324,0.0,1.0,90,0.00,,,0.00,WeatherCatV1.20B785,2013-07-22 22:07:00,
2013-07-22 23:12:00,65.8,62.8,29.77,NW,326,0.0,0.0,90,0.00,,,0.00,WeatherCatV1.20B785,2013-07-22 22:12:00,
2013-07-22 23:17:00,65.7,62.7,29.77,NW,326,0.0,0.0,90,0.00,,,0.00,WeatherCatV1.20B785,2013-07-22 22:17:00,
2013-07-22 23:22:00,65.8,62.8,29.77,NNW,335,0.0,0.0,90,0.00,,,0.00,WeatherCatV1.20B785,2013-07-22 22:22:00,
2013-07-22 23:27:00,65.8,62.8,29.77,NNW,335,1.0,1.0,90,0.00,,,0.00,WeatherCatV1.20B785,2013-07-22 22:27:00,
2013-07-22 23:32:00,65.9,62.9,29.77,NNW,345,0.0,1.0,90,0.00,,,0.00,WeatherCatV1.20B785,2013-07-22 22:32:00,
2013-07-22 23:37:00,65.9,62.6,29.77,WNW,288,1.0,1.0,89,0.00,,,0.00,WeatherCatV1.20B785,2013-07-22 22:37:00,
2013-07-22 23:42:00,65.8,62.5,29.77,WNW,288,0.0,1.0,89,0.00,,,0.00,WeatherCatV1.20B785,2013-07-22 22:42:00,
2013-07-22 23:47:00,65.7,62.4,29.77,WNW,300,1.0,1.0,89,0.00,,,0.00,WeatherCatV1.20B785,2013-07-22 22:47:00,
2013-07-22 23:52:00,65.5,62.5,29.77,WNW,297,0.0,1.0,90,0.00,,,0.00,WeatherCatV1.20B785,2013-07-22 22:52:00,
2013-07-22 23:57:00,65.3,62.3,29.77,WNW,298,0.0,1.0,90,0.00,,,0.00,WeatherCatV1.20B785,2013-07-22 22:57:00,